Location: Unspecified
(0.0000°N, 0.0000°E)
Time: 19:38:23
(UTC+00:00)

Tiros 1 despin weight - Pass Details

Date: 30 May 2022
Orbit: 591 x 639 km, 48.2° (Epoch: 25 June)

Event Time Altitude Azimuth Distance (km) Brightness Sun altitude
Rises 13:18:27 0° 220° (SW) 2,934 ? 60.6°
Reaches altitude 10° 13:20:48 10° 220° (SW) 2,022 ? 60.2°
Maximum altitude 13:25:28 85° 307° (NW) 639 ? 59.4°
Drops below altitude 10° 13:30:05 10° 37° (NE) 1,997 ? 58.6°
Sets 13:32:22 0° 38° (NE) 2,895 ? 58.2°
